Theta_e
316 315 317 317 317 305 311 311 307 310 316 313 308 309 310 309 305 303 312 310 312 317 316 320 321 320 322 323 323 324 328 330 332 334 339 339 337 341 342 336 333 345 351 353 352 352 351 349 347 346 350 351 352 351 349 349 352 353 351 350 348 348 348
317 319 318 317 317 316 314 307 311 316 319 316 311 303 307 304 300 303 307 305 307 308 305 319 319 318 319 321 322 322 327 333 332 332 337 338 337 341 345 348 343 344 347 351 349 350 350 349 348 349 352 353 353 351 349 348 350 351 350 349 348 348 348
316 318 317 314 317 318 313 312 319 310 305 304 310 307 299 300 300 302 305 307 307 309 311 315 315 316 318 320 323 322 322 328 333 333 336 341 342 341 343 346 346 342 350 350 347 347 348 349 350 351 354 354 351 349 350 348 349 351 350 348 348 349 349
315 315 314 307 310 316 317 318 314 317 313 310 307 307 308 307 300 301 302 306 303 313 312 316 316 318 319 319 321 321 322 324 331 335 335 339 342 342 342 345 341 340 347 348 345 344 343 346 348 350 352 349 345 346 349 349 349 350 349 348 349 348 350
315 308 311 309 311 309 310 311 311 312 311 315 313 311 307 305 303 302 302 301 306 313 316 316 318 318 320 319 320 322 323 324 327 335 337 340 343 343 344 346 346 347 348 346 344 342 341 345 348 349 347 344 341 342 345 345 346 346 346 348 348 349 349
309 310 315 314 313 313 311 310 309 311 309 307 303 303 311 309 305 298 300 300 309 315 319 320 318 320 319 321 321 323 324 325 328 334 339 341 343 346 346 347 344 345 346 344 343 341 341 344 345 345 343 340 338 341 342 341 340 341 341 346 347 349 348
310 313 316 317 316 317 316 314 311 314 313 312 307 298 305 309 308 309 308 304 307 317 320 321 321 321 320 322 322 322 324 326 329 335 338 343 347 347 347 347 342 340 346 344 342 342 343 346 347 344 341 337 337 339 340 340 339 340 340 342 347 350 348
315 316 317 317 317 316 314 315 316 313 310 311 310 308 312 308 309 305 305 303 308 322 325 322 322 325 323 325 324 324 324 326 329 335 339 345 348 349 346 344 340 343 346 345 344 342 345 347 347 342 339 339 337 337 336 338 338 339 339 337 341 348 348
308 310 314 313 315 315 312 312 314 315 314 313 312 313 315 308 308 308 304 300 305 321 331 327 323 323 320 322 324 325 324 326 329 337 343 346 350 350 348 346 346 348 346 343 345 345 346 347 346 343 340 338 337 338 337 335 336 336 337 338 336 342 346
297 299 299 302 306 309 312 313 313 315 313 313 311 306 310 302 309 312 306 306 311 319 322 322 321 322 323 322 323 324 327 328 330 335 343 348 350 350 350 350 348 347 347 345 345 345 346 347 344 343 343 339 339 338 337 336 334 335 335 337 337 338 338
305 307 312 314 314 312 308 310 311 312 314 314 314 312 308 304 305 307 308 311 311 316 317 319 320 321 320 321 324 323 325 327 334 341 345 348 350 351 350 350 348 350 349 344 345 346 346 346 345 344 343 339 338 340 338 334 335 335 338 338 340 339 337
312 312 313 314 314 310 311 310 310 311 312 313 311 308 306 314 308 302 310 313 311 312 316 318 320 320 322 323 324 324 325 327 330 339 347 349 350 353 353 351 349 348 349 347 347 348 349 347 347 345 344 340 340 340 338 336 335 335 336 341 341 339 338
312 313 313 314 313 313 312 312 311 311 312 312 311 311 312 315 308 305 313 315 314 314 315 317 319 321 323 321 323 325 326 326 330 337 343 345 347 351 351 351 350 349 348 348 350 350 349 348 346 345 342 341 342 343 339 340 336 337 341 343 342 340 340
312 312 312 313 312 312 312 312 312 312 312 311 312 312 313 313 314 314 314 319 316 317 319 319 322 324 324 324 326 326 327 324 328 331 341 343 345 348 349 350 350 350 350 351 351 351 348 347 345 343 341 342 341 340 337 337 340 339 343 344 344 342 339
310 311 312 313 312 312 310 312 312 313 313 312 312 313 313 315 313 313 314 315 314 320 323 321 323 328 326 325 322 322 324 324 324 328 334 342 343 345 349 350 350 351 352 353 352 349 347 346 345 342 342 343 344 336 335 336 340 341 342 345 344 343 341
307 311 312 311 312 312 310 310 311 312 311 310 311 311 314 313 312 314 314 313 312 320 322 321 324 325 324 323 323 323 323 323 327 329 330 336 342 343 347 349 351 351 352 353 351 349 346 347 345 343 344 340 339 338 335 336 338 340 342 344 344 344 342
306 310 312 310 310 309 306 308 310 312 313 314 314 314 316 315 315 313 310 311 317 319 322 321 323 322 321 321 321 323 326 330 335 335 334 334 339 343 346 348 349 350 351 352 352 349 347 345 344 345 344 339 341 340 339 341 341 341 341 342 345 344 342
306 309 310 311 306 299 301 314 316 315 312 313 311 311 313 317 318 316 317 317 320 320 319 319 319 319 321 324 328 333 335 332 332 334 335 336 339 343 344 347 348 351 352 351 351 350 347 347 345 345 345 343 345 343 340 342 340 342 344 344 344 343 342
305 309 309 304 300 301 315 317 317 317 316 315 313 314 315 317 320 319 317 318 318 320 320 321 322 324 325 326 329 330 331 335 331 332 337 339 340 343 345 346 347 350 351 352 352 349 347 345 345 343 343 345 345 343 342 341 341 342 343 344 343 343 341
310 307 307 298 301 315 317 319 319 320 319 317 315 313 315 317 317 320 317 318 319 321 321 321 323 324 325 327 329 333 334 333 333 331 336 339 340 343 345 347 349 350 350 351 350 349 348 345 342 342 343 344 342 342 343 341 341 344 344 343 342 341 339
304 306 306 307 317 312 316 315 316 317 314 315 313 308 313 318 319 319 318 320 320 321 321 322 322 325 325 322 322 330 333 336 335 334 336 337 340 343 346 347 348 351 352 352 351 350 347 344 343 341 342 342 342 341 341 338 341 342 343 343 342 340 339
310 306 305 306 306 301 310 318 319 320 319 319 319 316 312 320 320 321 321 321 321 321 320 321 323 328 320 314 316 325 331 335 336 337 337 338 342 346 346 349 349 352 352 352 352 348 346 345 344 343 342 343 344 342 341 339 338 340 342 341 341 340 338
309 307 302 302 301 304 314 317 318 320 321 319 320 314 309 318 319 320 321 320 321 320 319 321 324 320 313 313 320 330 333 332 333 336 335 337 342 345 346 347 349 350 352 352 351 350 348 345 345 346 345 343 342 342 340 337 337 339 341 341 340 339 339
309 308 305 303 307 306 316 317 319 321 322 321 317 303 305 317 319 321 321 320 319 320 322 321 322 319 314 314 325 328 331 330 333 339 338 341 343 346 347 350 353 354 354 353 350 348 346 348 350 349 346 343 341 340 340 338 336 337 340 341 341 341 341
307 305 306 308 310 317 317 318 321 321 321 318 307 300 309 318 321 321 322 320 320 322 322 323 318 323 323 325 331 329 329 330 335 339 341 343 344 345 344 347 351 353 352 350 348 347 349 351 350 349 346 346 344 344 345 344 340 338 340 343 343 342 342
305 306 304 305 309 316 319 321 320 321 316 305 305 318 325 322 321 323 322 321 322 322 323 323 324 324 325 327 327 329 328 332 338 338 341 342 343 342 345 349 350 351 347 350 349 347 351 352 351 349 350 349 348 347 345 344 345 343 343 343 343 343 343
308 308 304 301 296 319 321 318 318 319 310 315 323 326 324 322 323 322 323 322 324 324 323 324 326 326 323 326 327 329 331 334 336 336 337 339 337 339 346 346 347 342 343 343 340 340 341 343 347 350 350 349 349 347 345 347 347 346 344 343 343 343 343
304 304 300 300 314 319 320 319 314 316 320 325 328 324 321 324 323 323 323 323 324 325 327 328 326 326 326 328 328 331 332 335 335 336 338 339 339 342 337 336 339 336 341 340 337 337 334 339 343 348 349 348 348 347 346 349 348 348 346 344 344 344 344
313 309 314 319 322 321 321 323 322 325 325 325 324 325 322 322 322 326 323 324 325 327 327 330 329 326 327 328 329 331 334 334 334 336 337 336 337 335 332 333 337 337 338 341 340 341 345 348 350 351 350 346 346 345 347 348 347 346 346 344 343 344 344
320 321 321 322 322 322 321 321 323 322 322 325 325 326 325 328 329 329 326 327 327 327 329 330 329 327 328 327 329 333 333 334 338 340 339 338 337 333 334 339 340 338 336 338 340 342 347 349 348 347 346 345 343 344 346 346 346 345 345 344 343 344 345
312 307 318 319 318 318 320 321 323 324 324 325 327 330 331 330 330 330 332 333 333 332 332 331 331 328 329 330 331 333 335 336 340 340 340 340 338 337 339 343 341 338 337 334 335 336 338 343 345 343 346 346 346 346 345 344 344 346 346 345 344 344 342
312 316 318 319 318 321 322 321 320 318 321 324 327 328 330 331 331 331 332 332 330 331 330 331 331 330 329 331 334 334 336 340 341 341 341 340 341 343 344 342 341 340 338 337 337 339 340 342 343 341 338 337 337 340 339 337 337 343 344 344 343 343 342
316 319 319 318 320 320 319 319 319 320 322 325 326 327 328 329 329 331 332 333 332 331 331 334 334 331 332 332 337 333 331 333 336 339 339 342 343 342 341 341 342 343 340 339 339 336 340 340 339 338 337 336 332 331 331 336 339 337 340 341 342 341 340
312 312 318 318 311 311 318 316 317 320 324 324 325 326 326 327 328 330 328 329 331 331 332 334 333 333 333 333 336 329 329 332 336 339 342 342 341 341 341 341 341 339 338 337 336 336 339 338 337 338 337 336 337 332 331 331 335 336 339 340 339 337 333
309 314 317 319 320 319 318 318 319 322 325 323 321 322 323 324 326 327 328 326 328 328 330 333 335 334 335 335 334 331 331 333 337 339 338 337 335 334 335 336 336 337 336 336 337 335 338 337 336 335 335 334 336 335 335 337 336 337 338 336 333 331 330
315 316 316 318 317 315 317 318 319 321 326 321 319 319 321 322 323 325 329 330 328 329 329 329 332 336 336 335 333 335 332 335 336 336 335 334 333 333 333 335 335 336 336 336 337 336 338 335 335 335 333 334 336 333 334 336 337 337 337 335 333 331 329
312 315 316 317 317 317 318 319 319 320 325 322 319 319 320 320 321 323 325 329 332 328 328 329 330 333 330 330 331 332 336 335 335 335 334 334 332 329 328 332 335 336 337 336 337 336 337 336 335 335 332 334 336 333 336 334 335 335 335 335 333 331 332
Wind_Speed
18 19 16 12 10 11 11 10 12 11 11 12 9 11 12 11 7 8 5 10 10 7 10 11 11 7 6 3 6 8 8 10 11 13 16 15 17 17 18 20 19 19 19 17 16 16 15 15 15 14 14 12 12 10 10 10 10 9 9 8 7 5 4
14 18 17 13 14 14 7 10 9 13 6 7 7 9 5 7 9 9 10 8 7 5 6 11 11 8 8 8 6 7 7 9 11 11 14 17 18 18 18 17 18 18 18 18 17 16 16 16 16 15 15 13 11 10 10 10 10 10 9 8 7 6 5
15 15 15 15 13 14 14 6 6 12 9 11 6 7 8 7 9 8 9 8 8 9 2 8 10 7 7 9 9 6 7 9 10 11 12 15 16 16 17 18 17 18 18 17 16 17 17 16 15 15 15 13 11 10 10 10 11 10 9 7 7 5 5
15 12 12 13 13 12 16 8 9 7 8 8 9 10 8 5 7 6 8 6 6 7 7 11 12 6 4 2 4 4 7 9 10 10 11 13 15 15 16 17 18 17 18 19 19 18 18 17 16 15 16 13 13 12 11 10 10 9 9 8 7 7 6
15 14 12 14 12 13 13 10 10 8 8 4 6 6 9 9 8 7 6 7 3 8 9 9 7 5 2 1 3 4 5 5 8 10 10 11 14 15 16 16 16 17 18 19 18 18 16 16 15 14 15 14 13 12 12 12 11 10 10 9 8 6 6
12 12 14 17 16 15 13 12 13 11 10 10 9 9 9 10 7 4 5 8 4 8 6 7 7 7 3 4 2 3 6 5 6 8 11 11 12 15 16 16 16 17 19 18 18 16 15 16 16 16 14 13 13 13 12 12 11 10 10 9 8 7 6
10 13 16 20 21 17 16 16 14 13 11 10 9 8 8 9 9 8 8 7 4 7 7 5 8 4 4 3 3 4 3 2 5 7 9 11 12 14 15 14 16 17 17 17 17 16 16 16 15 15 13 13 12 13 12 11 10 11 10 11 10 8 6
13 16 17 19 19 15 13 13 14 14 14 12 10 10 7 8 4 7 6 9 2 5 4 7 7 5 2 3 2 3 2 3 5 7 8 10 12 13 14 16 15 14 15 15 14 16 15 15 14 14 12 11 11 11 10 10 10 10 8 5 8 9 7
9 10 8 8 12 13 11 12 12 14 15 16 14 12 2 6 7 10 9 10 4 5 6 6 5 4 3 6 5 3 3 2 5 6 7 9 12 12 15 15 15 16 16 16 14 15 14 14 14 12 12 11 10 9 8 8 8 9 8 6 5 7 7
16 15 14 14 14 14 12 14 16 15 18 18 13 13 9 6 9 12 9 9 6 8 8 7 4 3 3 3 2 2 5 3 6 5 8 9 11 13 14 15 16 19 17 15 15 16 14 15 14 13 11 11 10 9 9 7 7 5 5 6 7 6 7
14 10 8 10 12 11 15 17 19 18 18 17 15 11 10 9 7 11 10 10 5 10 11 8 8 2 4 5 7 7 5 4 5 6 8 9 10 11 14 15 15 14 15 18 18 17 16 16 15 13 13 12 10 8 8 9 6 5 5 4 4 4 5
19 11 13 14 16 18 17 20 20 21 20 17 18 15 13 8 9 11 8 4 12 14 12 10 6 1 4 6 7 8 5 5 6 7 9 11 12 11 11 13 15 16 16 16 16 17 17 16 15 13 12 12 11 11 10 8 7 7 6 6 6 6 5
20 20 19 20 21 21 18 19 20 21 20 19 18 17 18 13 12 12 7 9 13 11 13 10 9 4 7 8 8 6 8 8 7 9 11 12 13 13 15 15 15 16 17 16 17 17 17 16 17 15 13 12 11 10 9 8 8 8 6 7 7 6 6
18 20 24 22 14 10 14 18 18 19 19 19 19 19 18 19 13 11 9 7 10 10 11 9 7 8 8 7 7 8 9 11 9 9 11 12 13 14 14 15 16 16 16 17 18 18 17 17 17 15 13 12 10 8 10 10 9 7 7 7 7 7 6
19 22 24 20 12 14 19 19 20 19 18 18 19 19 19 20 15 13 12 14 12 10 9 11 7 3 3 6 8 10 9 9 9 10 11 12 12 13 14 15 16 17 17 18 18 19 18 18 18 15 13 12 10 15 13 12 10 8 8 8 8 7 7
11 16 16 8 12 19 22 22 21 20 20 21 16 14 13 12 10 5 7 9 9 6 11 13 3 5 7 8 9 10 9 10 9 9 10 10 11 12 14 15 16 17 18 19 20 20 19 18 18 15 14 14 14 13 12 11 11 10 9 8 8 8 8
13 16 11 13 19 17 18 19 19 21 22 18 14 14 13 7 4 8 10 9 8 7 4 3 6 9 9 9 9 9 8 3 4 6 8 9 9 10 12 13 15 16 17 17 18 18 18 18 17 17 15 14 14 13 11 10 9 9 10 9 9 9 8
11 16 15 14 14 16 14 9 15 15 13 12 14 14 11 6 5 8 8 9 4 1 4 7 9 9 8 7 6 5 6 7 7 9 9 8 8 9 10 12 13 13 13 13 15 18 18 18 18 16 15 14 12 12 11 10 10 8 9 9 9 9 8
12 13 12 13 16 14 9 8 5 9 15 15 16 14 10 9 9 11 13 10 7 6 6 8 8 8 8 7 8 8 8 8 9 8 7 7 8 9 9 11 12 12 13 13 15 16 16 17 15 14 13 12 11 11 11 11 10 9 9 9 9 9 9
9 11 10 12 11 2 1 4 8 6 9 8 11 15 12 11 12 10 10 9 7 6 8 8 8 6 6 8 8 8 8 8 8 7 7 8 9 9 9 10 10 11 12 13 14 15 14 14 14 13 13 12 12 12 11 11 10 10 10 9 10 9 10
12 11 11 12 4 3 6 4 7 7 11 10 10 10 9 9 8 7 8 7 7 8 9 8 5 3 6 9 9 9 9 8 8 6 6 8 9 9 9 10 11 11 12 13 14 13 13 13 13 13 12 12 11 11 12 11 11 11 11 10 10 11 11
10 11 12 12 10 14 8 6 3 6 6 4 4 4 5 6 7 7 10 6 5 7 7 7 2 2 8 9 10 9 10 10 8 6 5 7 9 9 9 10 10 11 11 11 12 13 13 13 12 11 11 10 10 10 11 11 12 11 11 11 11 11 11
11 12 13 11 11 9 7 11 11 12 7 6 6 4 9 6 8 11 10 7 5 5 6 3 3 5 8 8 7 6 9 10 10 9 8 9 10 10 10 11 12 12 11 11 12 12 12 12 11 10 10 10 10 10 11 12 12 12 12 12 12 12 11
12 11 11 12 8 8 3 8 15 12 9 6 5 10 7 3 7 3 0 2 3 4 4 4 5 6 8 7 3 7 9 11 12 9 9 10 11 11 11 11 11 11 11 11 11 11 12 11 11 10 9 9 10 10 11 12 12 12 12 12 11 10 10
12 12 12 9 9 3 4 5 4 6 7 7 9 8 3 5 2 1 2 5 5 4 6 4 7 6 8 5 3 5 9 10 11 10 9 11 11 12 13 12 13 11 11 11 11 11 9 9 8 8 8 8 9 9 10 10 12 12 11 11 10 10 10
12 13 14 12 7 4 5 7 8 8 8 10 10 5 3 1 1 3 3 6 6 9 7 5 6 9 6 3 7 7 9 10 11 11 11 12 12 12 11 13 11 10 10 10 10 10 7 7 7 7 7 8 8 9 10 11 12 11 11 10 10 10 11
11 10 14 10 9 2 13 5 5 7 10 3 6 3 4 3 4 1 4 2 5 5 8 7 8 9 10 8 9 8 9 10 11 12 13 12 13 13 13 12 10 10 9 9 9 9 8 8 6 6 7 8 8 8 10 11 10 10 10 10 11 11 12
10 11 9 5 2 7 5 5 3 6 3 3 3 3 4 1 3 3 4 5 5 6 7 9 10 9 9 9 9 9 9 10 11 12 12 12 12 12 12 11 10 10 8 7 8 8 7 6 7 7 7 7 7 8 9 8 9 9 10 11 11 12 12
6 3 5 4 4 5 5 3 4 4 4 2 2 2 3 5 3 3 6 6 7 7 8 7 9 10 9 9 7 6 3 7 10 12 12 13 12 12 11 12 10 8 8 7 5 4 3 3 4 3 4 6 8 10 9 8 8 9 10 10 10 10 10
6 5 6 5 4 3 4 6 3 4 4 6 4 5 4 4 6 5 6 8 8 10 7 8 8 9 9 11 7 5 10 12 9 10 11 10 10 10 9 9 8 6 6 6 5 5 5 4 4 4 4 5 7 8 7 7 8 8 8 8 9 10 8
5 4 2 2 3 3 1 6 7 8 7 7 7 6 5 6 7 7 7 7 9 9 10 9 10 10 11 10 11 14 12 11 10 11 10 9 9 9 9 8 7 5 5 4 4 4 4 4 4 5 5 5 5 5 6 7 8 7 7 8 9 9 9
7 2 3 2 4 7 8 7 6 7 8 8 7 5 5 5 5 6 6 7 8 8 10 10 10 12 11 10 9 7 7 6 10 10 10 10 10 9 9 8 6 6 5 4 4 3 3 2 1 3 5 5 7 7 7 9 9 6 7 8 9 9 9
8 8 4 4 5 4 7 8 8 7 8 8 8 7 6 7 7 7 6 3 7 6 8 6 8 10 9 10 8 8 5 7 8 9 10 10 11 10 9 8 6 6 5 6 5 4 4 2 1 1 3 5 8 9 7 7 6 7 7 8 8 7 6
7 2 3 3 5 7 5 8 9 8 8 8 8 7 8 8 8 7 8 2 3 6 7 5 5 9 9 11 12 13 14 12 8 9 9 10 10 10 9 8 8 8 7 6 4 3 3 2 1 1 2 3 4 7 8 6 4 5 5 5 7 8 10
0 5 4 5 3 3 6 6 8 7 8 8 8 8 8 9 9 10 8 8 0 4 4 7 7 9 3 2 7 12 12 7 8 8 10 10 9 8 8 8 7 6 6 5 4 4 3 2 1 0 2 3 2 4 4 4 3 4 5 6 7 9 9
8 7 6 5 6 6 6 6 6 6 5 7 7 8 8 9 9 10 10 8 8 1 2 2 7 4 3 3 4 10 2 10 9 9 9 9 8 7 6 7 6 6 6 5 5 4 3 1 2 1 2 2 2 5 2 2 4 5 6 6 7 8 9
6 7 5 6 6 7 7 7 6 5 2 7 8 9 10 10 10 10 9 9 7 6 5 5 7 9 9 12 10 11 9 7 7 8 8 7 8 6 6 7 8 7 6 5 4 3 4 3 2 0 0 1 1 3 4 2 3 4 5 6 8 9 8
Wind_Direction
179 211 214 207 205 223 173 214 219 228 215 227 226 241 246 262 264 259 144 207 222 243 199 180 182 159 166 181 202 208 198 209 216 205 188 190 208 196 185 183 187 196 192 184 176 171 172 174 172 175 173 178 179 179 180 186 191 189 198 199 207 204 209
186 208 213 224 195 241 183 206 217 231 293 324 257 256 233 223 262 251 244 248 247 199 273 162 146 187 177 185 202 217 194 204 219 218 198 193 203 196 187 182 174 189 196 186 177 173 174 174 174 170 172 176 179 179 182 186 191 193 197 199 206 202 208
187 204 215 209 227 229 266 208 170 220 171 218 232 305 247 224 211 248 225 223 249 261 168 169 135 224 181 185 190 202 212 211 217 221 211 197 202 197 186 183 177 191 193 182 176 174 174 174 172 168 169 173 177 181 185 190 192 195 196 203 203 205 209
165 198 206 219 192 208 247 301 289 210 231 222 212 191 271 266 265 253 246 198 262 205 211 155 149 177 135 285 169 202 242 222 208 219 216 200 199 198 190 182 181 191 199 183 177 174 175 171 172 170 171 176 180 181 184 189 191 193 199 201 203 204 205
162 203 196 222 198 196 199 233 232 187 233 264 278 169 221 228 245 246 272 258 77 31 88 117 101 84 91 206 202 191 246 237 213 209 214 205 198 198 192 183 182 185 191 182 177 175 174 168 172 176 177 181 183 180 182 190 190 194 198 201 202 206 212
178 220 191 221 218 199 207 206 220 239 207 213 211 232 201 236 253 267 273 257 157 125 92 75 105 116 154 130 278 205 201 227 228 198 208 206 198 197 192 185 185 192 190 179 176 175 170 169 176 183 181 182 184 183 181 189 194 198 204 192 205 205 207
213 224 200 202 230 221 213 193 217 224 236 226 224 240 226 226 237 249 246 282 155 122 119 130 121 134 118 114 181 247 161 242 222 203 206 199 199 197 190 181 183 195 198 180 173 172 172 172 179 185 181 184 183 184 185 182 195 198 207 197 192 194 205
205 216 220 194 215 235 247 226 215 205 223 220 227 225 239 236 232 253 221 231 169 97 110 140 120 100 124 133 167 245 216 179 224 208 203 191 190 197 193 186 187 198 193 177 167 172 172 172 179 183 180 184 182 184 187 186 194 199 214 204 170 180 198
224 194 199 208 196 224 232 240 217 227 223 211 212 223 97 246 201 221 251 248 153 126 98 97 124 155 198 150 156 198 273 226 234 193 203 188 188 194 191 185 191 184 185 176 168 172 171 173 176 175 176 180 176 181 188 197 201 196 192 199 202 175 194
219 197 200 199 202 211 219 238 242 219 236 234 222 220 163 233 231 254 239 241 101 143 118 119 155 148 322 299 283 192 167 240 259 191 191 192 191 194 194 190 184 183 180 172 169 173 172 173 172 168 169 174 174 176 188 208 204 199 182 192 194 194 207
234 230 213 195 222 201 220 216 232 241 222 234 244 248 241 226 212 235 246 262 212 146 160 188 161 221 254 233 193 213 237 221 223 217 188 189 194 197 198 192 188 181 175 176 175 172 171 170 166 165 167 174 176 172 194 202 198 191 182 189 186 196 217
259 250 220 226 212 229 212 222 218 228 243 225 231 232 237 220 244 241 239 230 254 260 252 272 318 288 222 239 280 294 279 234 230 214 201 188 188 191 193 193 190 188 181 176 172 170 170 166 163 162 169 169 176 174 198 197 195 194 180 184 188 195 213
235 247 248 226 221 219 219 212 225 224 225 235 233 235 240 235 239 258 228 228 250 262 266 286 290 255 238 259 272 247 247 243 220 210 201 196 195 190 191 192 193 188 184 176 174 175 173 167 166 164 168 172 177 182 185 197 200 194 178 174 187 197 197
230 231 241 246 252 258 237 238 226 226 225 220 225 235 238 237 236 236 228 189 241 256 269 282 307 309 303 297 291 282 265 257 252 223 203 204 200 194 194 194 192 191 185 177 179 178 174 171 167 166 169 174 167 170 197 196 201 191 177 179 186 196 202
225 226 225 231 224 234 245 239 240 237 235 234 229 233 231 236 240 217 222 248 246 247 269 273 268 302 296 272 262 265 269 262 247 233 217 211 208 199 196 192 192 190 184 182 182 182 176 171 168 165 168 150 166 200 196 195 189 191 181 181 190 196 202
251 252 246 225 242 240 242 246 244 242 241 242 238 237 233 233 233 234 261 252 252 252 256 255 188 226 242 255 258 257 256 250 245 247 240 223 214 207 197 192 191 190 190 188 188 185 176 170 167 166 161 167 187 199 196 193 189 185 187 184 193 197 200
236 244 238 234 238 244 242 233 234 234 236 243 237 237 245 260 283 238 233 240 258 273 343 323 259 266 277 287 283 281 266 272 291 268 254 242 222 212 198 194 194 195 195 193 190 184 174 171 169 168 166 179 187 193 191 191 191 182 184 189 192 199 199
239 239 224 233 242 236 238 244 250 252 254 250 250 242 240 224 213 263 269 279 312 36 264 266 279 277 280 288 299 312 301 277 256 249 242 237 223 207 200 195 194 192 194 193 191 183 177 171 169 169 173 183 184 184 187 187 190 187 185 188 195 199 201
234 245 233 237 234 239 253 263 260 234 234 231 251 258 237 227 222 234 251 253 241 256 268 268 270 271 273 275 278 275 268 254 252 239 226 212 209 199 189 188 189 186 189 185 185 180 177 173 169 171 175 181 181 182 186 188 187 189 188 195 199 200 202
244 246 224 233 238 264 146 246 248 261 280 252 244 246 242 241 244 226 234 245 260 264 266 263 257 264 280 280 267 256 251 233 234 224 209 196 193 190 186 178 179 176 184 181 177 177 174 171 172 177 179 184 188 185 189 191 186 189 189 199 205 205 206
240 231 230 237 96 244 203 210 209 204 233 230 229 240 226 227 230 241 252 253 254 268 274 271 266 281 283 275 264 223 216 208 224 226 203 182 182 175 171 171 174 174 177 175 173 169 170 173 177 183 182 187 195 192 190 196 190 193 195 199 209 207 209
221 241 244 233 217 241 204 201 207 232 240 200 193 229 217 174 238 244 254 239 236 255 268 281 330 337 279 270 265 199 187 177 195 195 181 155 156 156 160 157 160 166 169 167 163 170 169 177 182 185 187 187 192 200 200 196 197 198 202 206 209 210 211
220 230 242 246 255 244 245 179 231 214 198 189 118 193 238 169 225 239 239 241 264 268 271 233 202 261 271 271 274 141 160 166 167 169 168 153 145 152 153 157 155 160 162 165 162 170 171 179 183 188 194 197 197 202 211 212 206 204 206 212 212 210 211
235 231 231 244 240 263 29 273 221 196 169 202 168 243 247 186 209 180 61 248 241 250 235 261 249 255 269 279 25 147 172 163 155 164 154 138 141 146 148 150 148 153 156 162 169 171 178 182 183 191 196 208 218 210 213 217 221 213 213 216 215 212 213
237 248 247 254 238 105 175 202 106 140 184 194 221 237 276 104 202 136 222 257 256 235 238 221 266 221 253 296 273 224 172 161 152 154 146 143 148 148 152 145 147 150 159 165 173 177 177 178 181 193 197 208 218 218 221 222 226 225 218 215 214 210 213
237 236 247 246 274 53 199 154 198 181 182 218 247 38 327 68 282 110 213 273 304 307 306 271 247 276 273 266 265 228 185 168 156 154 147 147 150 151 135 134 150 151 160 162 172 174 165 174 188 194 199 210 218 223 225 231 231 228 224 218 213 210 215
236 245 254 252 237 114 278 156 198 101 241 41 86 78 10 95 240 292 283 311 306 310 295 287 275 267 276 258 241 220 189 168 168 163 157 153 157 143 137 149 151 156 153 165 175 182 182 187 186 196 207 212 219 224 230 234 236 233 224 221 215 211 215
241 238 237 281 92 162 192 179 223 188 43 61 48 13 214 92 324 294 305 281 294 300 296 295 288 279 265 256 253 221 185 181 178 158 154 156 149 145 158 152 155 160 146 173 176 196 201 193 192 194 212 217 225 235 241 243 242 238 231 223 216 214 213
319 349 107 87 69 102 119 98 110 104 93 148 64 292 308 292 277 351 289 296 285 269 269 266 265 263 260 270 245 208 180 208 172 157 160 158 154 160 161 158 156 163 161 159 165 153 130 114 126 161 194 230 233 241 245 249 248 242 235 230 221 220 220
107 113 86 122 128 96 130 136 100 40 50 38 18 14 335 8 327 322 307 305 295 280 267 263 257 255 249 231 235 210 197 217 164 153 149 150 158 160 136 117 134 160 150 162 161 164 153 164 182 196 226 240 251 254 261 256 254 250 241 236 227 229 224
222 182 151 134 97 142 78 52 53 37 37 23 26 21 358 346 331 318 316 304 294 286 278 258 254 250 238 223 196 217 206 166 151 148 139 138 139 143 131 126 130 142 151 165 168 187 188 179 209 210 207 222 248 264 260 263 255 246 244 232 233 233 227
233 113 146 137 91 59 58 48 53 31 18 18 19 20 355 329 318 299 299 289 274 272 261 253 246 245 229 225 196 177 150 159 168 148 138 134 127 123 119 122 129 129 131 136 106 88 82 81 24 323 312 288 265 250 260 273 274 255 229 237 240 234 235
89 124 195 220 130 112 93 80 53 26 13 7 11 9 349 350 341 349 318 310 307 296 294 300 278 250 206 215 159 145 135 216 180 145 136 131 127 127 123 119 119 104 94 91 93 94 105 98 80 303 282 289 302 303 280 265 280 270 249 233 238 251 252
226 249 71 346 231 205 124 42 27 18 21 9 14 13 10 10 356 341 315 334 4 335 347 307 251 266 211 189 168 204 184 186 161 144 131 130 125 120 117 116 107 105 103 105 107 108 112 104 120 275 288 294 300 295 302 289 256 257 248 243 247 237 243
239 84 78 43 33 123 50 14 12 3 23 8 11 18 9 5 354 344 330 303 77 73 13 340 285 228 232 89 239 222 170 149 133 141 135 129 124 124 125 117 114 103 102 114 124 123 118 106 159 194 273 288 286 303 327 338 322 276 255 257 260 266 267
82 49 36 24 16 348 349 354 1 354 30 6 2 4 4 358 349 347 340 329 307 98 218 215 280 49 356 319 268 317 124 144 162 148 137 133 127 128 127 116 121 133 149 142 134 124 121 153 145 253 303 303 37 309 329 321 315 294 273 267 266 266 267
19 28 15 14 334 330 320 322 334 338 56 20 356 348 352 342 342 349 328 329 316 288 236 199 223 186 192 228 208 200 184 151 141 133 125 125 128 140 142 139 149 158 148 133 127 139 151 165 133 122 143 12 18 339 342 321 295 289 283 275 278 284 291